Location: Dodge City Community College Clyde Tombaugh Astronomy Center
(37.7756°N, 100.0412°W)
Time: 20:02:34
(UTC+00:00)

Cosmos 1939 Rocket - Pass Details

Date: 08 December 2021
Orbit: 531 x 583 km, 97.4° (Epoch: 16 January)

Event Time Altitude Azimuth Distance (km) Brightness Sun altitude
Rises 12:29:24 0° 17° (NNE) 2,706 6.3 -14.2°
Reaches altitude 10° 12:31:35 10° 22° (NNE) 1,802 5.5 -13.8°
Maximum altitude 12:35:22 51° 99° (E) 678 3.7 -13.1°
Drops below altitude 10° 12:39:06 10° 176° (S) 1,774 5.7 -12.4°
Sets 12:41:14 0° 182° (S) 2,657 6.6 -12.0°
